Wetterdaten: Donnerstag, 04.02.2016
Datum Zeit Temp. A. Feuchte A. Luftdruck Regen Wind Richtung Richtung Sonnenschein ET UV Solar Taupunkt Windchill Windben Empfang
04.02.2016 00:00 2,1 C 80 % 1022,8 hPa 0,0 l/m 21,3 km/h (4 Bft) W-SW 246 0 min 0,000 mm 0,0 UV-I 0 W/m -1,0 C -7,5 C 37,0 km/h (5 Bft) 99,17 %
04.02.2016 00:05 2,1 C 80 % 1022,8 hPa 0,0 l/m 20,2 km/h (4 Bft) W-SW 251 0 min 0,000 mm 0,0 UV-I 0 W/m -1,0 C -7,0 C 40,2 km/h (6 Bft) 98,17 %
04.02.2016 00:10 2,1 C 80 % 1022,8 hPa 0,0 l/m 21,4 km/h (4 Bft) W-SW 250 0 min 0,000 mm 0,0 UV-I 0 W/m -1,0 C -7,5 C 35,4 km/h (5 Bft) 99,21 %
04.02.2016 00:15 2,1 C 81 % 1023,1 hPa 0,0 l/m 19,6 km/h (3 Bft) W-SW 257 0 min 0,000 mm 0,0 UV-I 0 W/m -0,8 C -6,7 C 30,6 km/h (5 Bft) 99,13 %
04.02.2016 00:20 2,1 C 81 % 1023,3 hPa 0,0 l/m 19,0 km/h (3 Bft) W-SW 251 0 min 0,000 mm 0,0 UV-I 0 W/m -0,8 C -6,5 C 29,0 km/h (5 Bft) 100,00 %
04.02.2016 00:25 2,1 C 81 % 1023,4 hPa 0,0 l/m 19,9 km/h (4 Bft) W 261 0 min 0,000 mm 0,0 UV-I 0 W/m -0,8 C -6,9 C 35,4 km/h (5 Bft) 98,35 %
04.02.2016 00:30 2,0 C 81 % 1023,3 hPa 0,0 l/m 18,3 km/h (3 Bft) W-SW 252 0 min 0,000 mm 0,0 UV-I 0 W/m -0,9 C -6,3 C 29,0 km/h (5 Bft) 99,15 %
04.02.2016 00:35 2,0 C 82 % 1023,3 hPa 0,0 l/m 15,0 km/h (3 Bft) W-SW 257 0 min 0,000 mm 0,0 UV-I 0 W/m -0,7 C -4,6 C 24,1 km/h (4 Bft) 97,94 %
04.02.2016 00:40 2,0 C 82 % 1023,3 hPa 0,0 l/m 16,8 km/h (3 Bft) W-SW 248 0 min 0,000 mm 0,0 UV-I 0 W/m -0,7 C -5,5 C 32,2 km/h (5 Bft) 100,00 %
04.02.2016 00:45 2,0 C 82 % 1023,2 hPa 0,0 l/m 13,6 km/h (3 Bft) W 271 0 min 0,000 mm 0,0 UV-I 0 W/m -0,7 C -3,7 C 22,5 km/h (4 Bft) 100,00 %
04.02.2016 00:50 2,0 C 83 % 1023,3 hPa 0,0 l/m 14,9 km/h (3 Bft) W-SW 252 0 min 0,000 mm 0,0 UV-I 0 W/m -0,6 C -4,5 C 24,1 km/h (4 Bft) 99,11 %
04.02.2016 00:55 1,9 C 83 % 1023,3 hPa 0,0 l/m 13,0 km/h (3 Bft) W 272 0 min 0,000 mm 0,0 UV-I 0 W/m -0,7 C -3,5 C 20,9 km/h (4 Bft) 98,26 %
04.02.2016 01:00 1,9 C 84 % 1023,3 hPa 0,0 l/m 12,1 km/h (2 Bft) W-SW 244 0 min 0,025 mm 0,0 UV-I 0 W/m -0,5 C -2,9 C 20,9 km/h (4 Bft) 96,83 %
04.02.2016 01:05 1,9 C 84 % 1023,5 hPa 0,0 l/m 11,8 km/h (2 Bft) W 261 0 min 0,000 mm 0,0 UV-I 0 W/m -0,5 C -2,7 C 22,5 km/h (4 Bft) 97,39 %
04.02.2016 01:10 2,0 C 85 % 1023,4 hPa 0,0 l/m 12,4 km/h (3 Bft) W 262 0 min 0,000 mm 0,0 UV-I 0 W/m -0,3 C -3,0 C 22,5 km/h (4 Bft) 94,34 %
04.02.2016 01:15 2,0 C 85 % 1023,6 hPa 0,0 l/m 8,4 km/h (2 Bft) W 262 0 min 0,000 mm 0,0 UV-I 0 W/m -0,3 C 0,1 C 14,5 km/h (3 Bft) 95,24 %
04.02.2016 01:20 2,0 C 85 % 1023,7 hPa 0,0 l/m 10,2 km/h (2 Bft) W 261 0 min 0,000 mm 0,0 UV-I 0 W/m -0,3 C -1,4 C 20,9 km/h (4 Bft) 98,31 %
04.02.2016 01:25 2,1 C 85 % 1023,5 hPa 0,0 l/m 15,2 km/h (3 Bft) W-SW 257 0 min 0,000 mm 0,0 UV-I 0 W/m -0,2 C -4,5 C 27,4 km/h (4 Bft) 96,43 %
04.02.2016 01:30 2,1 C 85 % 1023,6 hPa 0,0 l/m 14,4 km/h (3 Bft) W-SW 240 0 min 0,000 mm 0,0 UV-I 0 W/m -0,2 C -4,1 C 25,7 km/h (4 Bft) 97,50 %
04.02.2016 01:35 2,1 C 85 % 1023,6 hPa 0,0 l/m 15,1 km/h (3 Bft) W-SW 253 0 min 0,000 mm 0,0 UV-I 0 W/m -0,2 C -4,5 C 29,0 km/h (5 Bft) 99,08 %
04.02.2016 01:40 2,1 C 85 % 1023,7 hPa 0,0 l/m 16,7 km/h (3 Bft) W-SW 248 0 min 0,000 mm 0,0 UV-I 0 W/m -0,2 C -5,4 C 27,4 km/h (4 Bft) 99,19 %
04.02.2016 01:45 2,1 C 85 % 1023,7 hPa 0,0 l/m 16,9 km/h (3 Bft) W-SW 257 0 min 0,000 mm 0,0 UV-I 0 W/m -0,2 C -5,5 C 25,7 km/h (4 Bft) 99,17 %
04.02.2016 01:50 2,1 C 85 % 1023,7 hPa 0,0 l/m 15,6 km/h (3 Bft) W 265 0 min 0,000 mm 0,0 UV-I 0 W/m -0,2 C -4,8 C 27,4 km/h (4 Bft) 99,17 %
04.02.2016 01:55 2,1 C 85 % 1023,8 hPa 0,0 l/m 12,9 km/h (3 Bft) W 265 0 min 0,000 mm 0,0 UV-I 0 W/m -0,2 C -3,2 C 20,9 km/h (4 Bft) 100,00 %
04.02.2016 02:00 2,1 C 85 % 1023,8 hPa 0,0 l/m 11,8 km/h (2 Bft) W 274 0 min 0,000 mm 0,0 UV-I 0 W/m -0,2 C -2,4 C 19,3 km/h (3 Bft) 100,00 %
04.02.2016 02:05 2,1 C 84 % 1024,0 hPa 0,0 l/m 13,2 km/h (3 Bft) W 259 0 min 0,026 mm 0,0 UV-I 0 W/m -0,3 C -3,4 C 19,3 km/h (3 Bft) 98,35 %
04.02.2016 02:10 2,2 C 84 % 1024,0 hPa 0,0 l/m 10,6 km/h (2 Bft) W-SW 257 0 min 0,000 mm 0,0 UV-I 0 W/m -0,2 C -1,5 C 17,7 km/h (3 Bft) 99,19 %
04.02.2016 02:15 2,1 C 84 % 1024,0 hPa 0,0 l/m 9,4 km/h (2 Bft) W 274 0 min 0,000 mm 0,0 UV-I 0 W/m -0,3 C -0,7 C 17,7 km/h (3 Bft) 100,00 %
04.02.2016 02:20 2,1 C 84 % 1023,9 hPa 0,0 l/m 11,5 km/h (2 Bft) W-SW 248 0 min 0,000 mm 0,0 UV-I 0 W/m -0,3 C -2,2 C 16,1 km/h (3 Bft) 100,00 %
04.02.2016 02:25 2,2 C 84 % 1023,9 hPa 0,0 l/m 11,6 km/h (2 Bft) SW 229 0 min 0,000 mm 0,0 UV-I 0 W/m -0,2 C -2,2 C 19,3 km/h (3 Bft) 97,52 %
04.02.2016 02:30 2,2 C 84 % 1023,8 hPa 0,0 l/m 11,9 km/h (2 Bft) W-SW 245 0 min 0,000 mm 0,0 UV-I 0 W/m -0,2 C -2,4 C 24,1 km/h (4 Bft) 100,00 %
04.02.2016 02:35 2,2 C 84 % 1023,9 hPa 0,0 l/m 8,8 km/h (2 Bft) W-SW 240 0 min 0,000 mm 0,0 UV-I 0 W/m -0,2 C -0,0 C 17,7 km/h (3 Bft) 100,00 %
04.02.2016 02:40 2,1 C 85 % 1023,9 hPa 0,0 l/m 7,5 km/h (2 Bft) SW 226 0 min 0,000 mm 0,0 UV-I 0 W/m -0,2 C 1,0 C 14,5 km/h (3 Bft) 100,00 %
04.02.2016 02:45 2,1 C 85 % 1024,0 hPa 0,0 l/m 8,0 km/h (2 Bft) W-SW 244 0 min 0,000 mm 0,0 UV-I 0 W/m -0,2 C 0,6 C 12,9 km/h (3 Bft) 98,90 %
04.02.2016 02:50 2,1 C 85 % 1023,9 hPa 0,0 l/m 11,1 km/h (2 Bft) W-SW 252 0 min 0,000 mm 0,0 UV-I 0 W/m -0,2 C -2,0 C 17,7 km/h (3 Bft) 100,00 %
04.02.2016 02:55 2,1 C 85 % 1024,0 hPa 0,0 l/m 14,1 km/h (3 Bft) SW 220 0 min 0,000 mm 0,0 UV-I 0 W/m -0,2 C -3,9 C 24,1 km/h (4 Bft) 100,00 %
04.02.2016 03:00 2,1 C 85 % 1023,9 hPa 0,0 l/m 13,5 km/h (3 Bft) SW 221 0 min 0,025 mm 0,0 UV-I 0 W/m -0,2 C -3,6 C 22,5 km/h (4 Bft) 100,00 %
04.02.2016 03:05 2,1 C 85 % 1023,8 hPa 0,0 l/m 14,1 km/h (3 Bft) W-SW 238 0 min 0,000 mm 0,0 UV-I 0 W/m -0,2 C -3,9 C 20,9 km/h (4 Bft) 95,00 %
04.02.2016 03:10 2,0 C 86 % 1023,8 hPa 0,0 l/m 13,3 km/h (3 Bft) S 191 0 min 0,000 mm 0,0 UV-I 0 W/m -0,1 C -3,5 C 22,5 km/h (4 Bft) 96,99 %
04.02.2016 03:15 2,0 C 85 % 1023,8 hPa 0,0 l/m 10,5 km/h (2 Bft) W 262 0 min 0,000 mm 0,0 UV-I 0 W/m -0,3 C -1,6 C 19,3 km/h (3 Bft) 96,30 %
04.02.2016 03:20 2,0 C 85 % 1023,8 hPa 0,0 l/m 12,7 km/h (3 Bft) S-SW 212 0 min 0,000 mm 0,0 UV-I 0 W/m -0,3 C -3,2 C 19,3 km/h (3 Bft) 95,76 %
04.02.2016 03:25 2,0 C 85 % 1023,7 hPa 0,0 l/m 12,9 km/h (3 Bft) W 264 0 min 0,000 mm 0,0 UV-I 0 W/m -0,3 C -3,3 C 17,7 km/h (3 Bft) 97,62 %
04.02.2016 03:30 1,9 C 85 % 1023,6 hPa 0,0 l/m 15,3 km/h (3 Bft) W-SW 252 0 min 0,000 mm 0,0 UV-I 0 W/m -0,3 C -4,8 C 25,7 km/h (4 Bft) 96,43 %
04.02.2016 03:35 1,9 C 85 % 1023,5 hPa 0,0 l/m 18,0 km/h (3 Bft) S-SW 201 0 min 0,000 mm 0,0 UV-I 0 W/m -0,3 C -6,3 C 32,2 km/h (5 Bft) 97,58 %
04.02.2016 03:40 1,9 C 84 % 1023,5 hPa 0,0 l/m 20,4 km/h (4 Bft) W-SW 252 0 min 0,000 mm 0,0 UV-I 0 W/m -0,5 C -7,4 C 33,8 km/h (5 Bft) 100,00 %
04.02.2016 03:45 2,0 C 84 % 1023,5 hPa 0,0 l/m 20,0 km/h (4 Bft) W 261 0 min 0,000 mm 0,0 UV-I 0 W/m -0,4 C -7,0 C 32,2 km/h (5 Bft) 99,15 %
04.02.2016 03:50 2,1 C 84 % 1023,7 hPa 0,0 l/m 16,0 km/h (3 Bft) W 264 0 min 0,000 mm 0,0 UV-I 0 W/m -0,3 C -5,0 C 27,4 km/h (4 Bft) 99,17 %
04.02.2016 03:55 2,1 C 84 % 1023,7 hPa 0,0 l/m 17,3 km/h (3 Bft) W-SW 238 0 min 0,000 mm 0,0 UV-I 0 W/m -0,3 C -5,7 C 32,2 km/h (5 Bft) 100,00 %
04.02.2016 04:00 2,2 C 83 % 1023,7 hPa 0,0 l/m 16,9 km/h (3 Bft) W-SW 257 0 min 0,026 mm 0,0 UV-I 0 W/m -0,4 C -5,3 C 25,7 km/h (4 Bft) 99,19 %
04.02.2016 04:05 2,3 C 83 % 1023,8 hPa 0,0 l/m 17,3 km/h (3 Bft) W 259 0 min 0,000 mm 0,0 UV-I 0 W/m -0,3 C -5,4 C 27,4 km/h (4 Bft) 100,00 %
04.02.2016 04:10 2,3 C 82 % 1023,8 hPa 0,0 l/m 17,0 km/h (3 Bft) SW 236 0 min 0,000 mm 0,0 UV-I 0 W/m -0,4 C -5,3 C 30,6 km/h (5 Bft) 99,22 %
04.02.2016 04:15 2,3 C 83 % 1023,8 hPa 0,0 l/m 12,7 km/h (3 Bft) W-SW 250 0 min 0,000 mm 0,0 UV-I 0 W/m -0,3 C -2,8 C 22,5 km/h (4 Bft) 99,13 %
04.02.2016 04:20 2,3 C 83 % 1023,9 hPa 0,0 l/m 18,3 km/h (3 Bft) W-SW 252 0 min 0,000 mm 0,0 UV-I 0 W/m -0,3 C -5,9 C 37,0 km/h (5 Bft) 100,00 %
04.02.2016 04:25 2,4 C 82 % 1024,0 hPa 0,0 l/m 18,0 km/h (3 Bft) W 275 0 min 0,000 mm 0,0 UV-I 0 W/m -0,4 C -5,6 C 29,0 km/h (5 Bft) 99,15 %
04.02.2016 04:30 2,4 C 82 % 1024,1 hPa 0,0 l/m 18,4 km/h (3 Bft) W-NW 288 0 min 0,000 mm 0,0 UV-I 0 W/m -0,4 C -5,8 C 32,2 km/h (5 Bft) 100,00 %
04.02.2016 04:35 2,4 C 81 % 1024,3 hPa 0,0 l/m 19,4 km/h (3 Bft) W-SW 254 0 min 0,000 mm 0,0 UV-I 0 W/m -0,5 C -6,3 C 33,8 km/h (5 Bft) 99,07 %
04.02.2016 04:40 2,4 C 82 % 1024,4 hPa 0,0 l/m 20,2 km/h (4 Bft) W-NW 286 0 min 0,000 mm 0,0 UV-I 0 W/m -0,4 C -6,6 C 35,4 km/h (5 Bft) 100,00 %
04.02.2016 04:45 2,4 C 82 % 1024,5 hPa 0,0 l/m 21,4 km/h (4 Bft) W 266 0 min 0,000 mm 0,0 UV-I 0 W/m -0,4 C -7,1 C 40,2 km/h (6 Bft) 97,39 %
04.02.2016 04:50 2,4 C 81 % 1024,6 hPa 0,0 l/m 21,2 km/h (4 Bft) W-SW 248 0 min 0,000 mm 0,0 UV-I 0 W/m -0,5 C -7,0 C 35,4 km/h (5 Bft) 99,21 %
04.02.2016 04:55 2,4 C 81 % 1024,5 hPa 0,0 l/m 19,8 km/h (3 Bft) W 262 0 min 0,000 mm 0,0 UV-I 0 W/m -0,5 C -6,4 C 35,4 km/h (5 Bft) 100,00 %
04.02.2016 05:00 2,3 C 81 % 1024,5 hPa 0,0 l/m 18,3 km/h (3 Bft) W 273 0 min 0,025 mm 0,0 UV-I 0 W/m -0,6 C -5,9 C 37,0 km/h (5 Bft) 100,00 %
04.02.2016 05:05 2,3 C 81 % 1024,6 hPa 0,0 l/m 21,1 km/h (4 Bft) W-NW 283 0 min 0,000 mm 0,0 UV-I 0 W/m -0,6 C -7,1 C 37,0 km/h (5 Bft) 100,00 %
04.02.2016 05:10 2,3 C 82 % 1024,8 hPa 0,0 l/m 16,1 km/h (3 Bft) W 274 0 min 0,000 mm 0,0 UV-I 0 W/m -0,4 C -4,8 C 27,4 km/h (4 Bft) 98,26 %
04.02.2016 05:15 2,3 C 82 % 1024,8 hPa 0,0 l/m 19,4 km/h (3 Bft) W 262 0 min 0,000 mm 0,0 UV-I 0 W/m -0,4 C -6,4 C 32,2 km/h (5 Bft) 98,20 %
04.02.2016 05:20 2,3 C 81 % 1024,9 hPa 0,0 l/m 19,8 km/h (3 Bft) W-SW 249 0 min 0,000 mm 0,0 UV-I 0 W/m -0,6 C -6,6 C 33,8 km/h (5 Bft) 97,46 %
04.02.2016 05:25 2,3 C 81 % 1025,0 hPa 0,0 l/m 19,5 km/h (3 Bft) W-SW 245 0 min 0,000 mm 0,0 UV-I 0 W/m -0,6 C -6,4 C 33,8 km/h (5 Bft) 95,73 %
04.02.2016 05:30 2,3 C 81 % 1025,0 hPa 0,0 l/m 14,3 km/h (3 Bft) W-SW 246 0 min 0,000 mm 0,0 UV-I 0 W/m -0,6 C -3,8 C 25,7 km/h (4 Bft) 97,32 %
04.02.2016 05:35 2,2 C 82 % 1025,0 hPa 0,0 l/m 15,3 km/h (3 Bft) SW 217 0 min 0,000 mm 0,0 UV-I 0 W/m -0,5 C -4,5 C 29,0 km/h (5 Bft) 98,31 %
04.02.2016 05:40 2,2 C 82 % 1024,9 hPa 0,0 l/m 19,2 km/h (3 Bft) W-SW 240 0 min 0,000 mm 0,0 UV-I 0 W/m -0,5 C -6,4 C 30,6 km/h (5 Bft) 95,74 %
04.02.2016 05:45 2,1 C 82 % 1024,8 hPa 0,0 l/m 17,5 km/h (3 Bft) W-SW 246 0 min 0,000 mm 0,0 UV-I 0 W/m -0,6 C -5,8 C 27,4 km/h (4 Bft) 97,28 %
04.02.2016 05:50 2,1 C 82 % 1024,8 hPa 0,0 l/m 16,0 km/h (3 Bft) W 263 0 min 0,000 mm 0,0 UV-I 0 W/m -0,6 C -5,0 C 25,7 km/h (4 Bft) 97,46 %
04.02.2016 05:55 2,1 C 82 % 1024,8 hPa 0,0 l/m 15,2 km/h (3 Bft) W-SW 240 0 min 0,000 mm 0,0 UV-I 0 W/m -0,6 C -4,5 C 22,5 km/h (4 Bft) 98,25 %
04.02.2016 06:00 2,1 C 81 % 1024,7 hPa 0,0 l/m 17,4 km/h (3 Bft) W-SW 242 0 min 0,025 mm 0,0 UV-I 0 W/m -0,8 C -5,7 C 27,4 km/h (4 Bft) 97,52 %
04.02.2016 06:05 2,0 C 81 % 1024,7 hPa 0,0 l/m 18,3 km/h (3 Bft) W-SW 252 0 min 0,000 mm 0,0 UV-I 0 W/m -0,9 C -6,3 C 30,6 km/h (5 Bft) 98,06 %
04.02.2016 06:10 1,9 C 80 % 1024,7 hPa 0,0 l/m 19,1 km/h (3 Bft) W-SW 240 0 min 0,000 mm 0,0 UV-I 0 W/m -1,2 C -6,8 C 29,0 km/h (5 Bft) 100,00 %
04.02.2016 06:15 1,9 C 80 % 1024,7 hPa 0,0 l/m 14,8 km/h (3 Bft) W-SW 254 0 min 0,000 mm 0,0 UV-I 0 W/m -1,2 C -4,6 C 22,5 km/h (4 Bft) 100,00 %
04.02.2016 06:20 1,8 C 80 % 1024,7 hPa 0,0 l/m 15,8 km/h (3 Bft) W 263 0 min 0,000 mm 0,0 UV-I 0 W/m -1,3 C -5,2 C 24,1 km/h (4 Bft) 99,17 %
04.02.2016 06:25 1,8 C 80 % 1024,7 hPa 0,0 l/m 16,7 km/h (3 Bft) W-NW 288 0 min 0,000 mm 0,0 UV-I 0 W/m -1,3 C -5,7 C 29,0 km/h (5 Bft) 99,11 %
04.02.2016 06:30 1,9 C 80 % 1024,6 hPa 0,0 l/m 16,3 km/h (3 Bft) SW 229 0 min 0,000 mm 0,0 UV-I 0 W/m -1,2 C -5,4 C 29,0 km/h (5 Bft) 100,00 %
04.02.2016 06:35 1,9 C 81 % 1024,7 hPa 0,0 l/m 16,3 km/h (3 Bft) W-SW 252 0 min 0,000 mm 0,0 UV-I 0 W/m -1,0 C -5,4 C 30,6 km/h (5 Bft) 98,25 %
04.02.2016 06:40 1,9 C 81 % 1024,7 hPa 0,0 l/m 17,3 km/h (3 Bft) W-SW 243 0 min 0,000 mm 0,0 UV-I 0 W/m -1,0 C -5,9 C 25,7 km/h (4 Bft) 100,00 %
04.02.2016 06:45 1,9 C 81 % 1024,7 hPa 0,0 l/m 17,3 km/h (3 Bft) SW 221 0 min 0,000 mm 0,0 UV-I 0 W/m -1,0 C -5,9 C 30,6 km/h (5 Bft) 100,00 %
04.02.2016 06:50 1,9 C 82 % 1024,8 hPa 0,0 l/m 14,7 km/h (3 Bft) SW 234 0 min 0,000 mm 0,0 UV-I 0 W/m -0,8 C -4,5 C 24,1 km/h (4 Bft) 99,19 %
04.02.2016 06:55 1,9 C 83 % 1024,9 hPa 0,0 l/m 14,8 km/h (3 Bft) W-SW 254 0 min 0,000 mm 0,0 UV-I 0 W/m -0,7 C -4,6 C 25,7 km/h (4 Bft) 100,00 %
04.02.2016 07:00 1,8 C 83 % 1025,0 hPa 0,0 l/m 15,7 km/h (3 Bft) SW 228 0 min 0,026 mm 0,0 UV-I 0 W/m -0,8 C -5,2 C 29,0 km/h (5 Bft) 99,12 %
04.02.2016 07:05 1,8 C 83 % 1025,0 hPa 0,0 l/m 15,6 km/h (3 Bft) W-SW 244 0 min 0,000 mm 0,0 UV-I 0 W/m -0,8 C -5,1 C 24,1 km/h (4 Bft) 100,00 %
04.02.2016 07:10 1,8 C 83 % 1024,8 hPa 0,0 l/m 15,4 km/h (3 Bft) SW 232 0 min 0,000 mm 0,0 UV-I 0 W/m -0,8 C -5,0 C 27,4 km/h (4 Bft) 99,15 %
04.02.2016 07:15 1,8 C 84 % 1024,9 hPa 0,0 l/m 17,3 km/h (3 Bft) W 261 0 min 0,000 mm 0,0 UV-I 0 W/m -0,6 C -6,0 C 27,4 km/h (4 Bft) 100,00 %
04.02.2016 07:20 1,9 C 84 % 1025,0 hPa 0,0 l/m 18,0 km/h (3 Bft) W-SW 244 0 min 0,000 mm 0,0 UV-I 0 W/m -0,5 C -6,3 C 35,4 km/h (5 Bft) 97,58 %
04.02.2016 07:25 1,8 C 86 % 1025,1 hPa 0,0 l/m 15,5 km/h (3 Bft) SW 235 0 min 0,000 mm 0,0 UV-I 0 W/m -0,3 C -5,1 C 32,2 km/h (5 Bft) 96,43 %
04.02.2016 07:30 1,7 C 86 % 1025,2 hPa 0,0 l/m 14,3 km/h (3 Bft) W 261 0 min 0,000 mm 0,0 UV-I 0 W/m -0,4 C -4,5 C 24,1 km/h (4 Bft) 96,83 %
04.02.2016 07:35 1,5 C 88 % 1025,2 hPa 0,0 l/m 14,9 km/h (3 Bft) W 271 0 min 0,000 mm 0,0 UV-I 0 W/m -0,3 C -5,1 C 25,7 km/h (4 Bft) 98,17 %
04.02.2016 07:40 1,3 C 90 % 1025,2 hPa 0,0 l/m 16,3 km/h (3 Bft) SW 234 0 min 0,000 mm 0,0 UV-I 1 W/m -0,2 C -6,1 C 24,1 km/h (4 Bft) 97,32 %
04.02.2016 07:45 1,1 C 91 % 1025,2 hPa 0,0 l/m 16,3 km/h (3 Bft) W-SW 257 0 min 0,000 mm 0,0 UV-I 6 W/m -0,2 C -6,4 C 25,7 km/h (4 Bft) 95,83 %
04.02.2016 07:50 1,0 C 92 % 1025,3 hPa 0,0 l/m 18,5 km/h (3 Bft) W-SW 249 0 min 0,000 mm 0,0 UV-I 9 W/m -0,2 C -7,6 C 29,0 km/h (5 Bft) 96,85 %
04.02.2016 07:55 0,9 C 92 % 1025,3 hPa 0,0 l/m 16,4 km/h (3 Bft) W 260 0 min 0,000 mm 0,0 UV-I 10 W/m -0,2 C -6,7 C 27,4 km/h (4 Bft) 97,37 %
04.02.2016 08:00 1,1 C 92 % 1025,3 hPa 0,0 l/m 15,3 km/h (3 Bft) W-SW 254 0 min 0,025 mm 0,0 UV-I 14 W/m -0,1 C -5,8 C 24,1 km/h (4 Bft) 100,00 %
04.02.2016 08:05 1,1 C 91 % 1025,3 hPa 0,0 l/m 19,0 km/h (3 Bft) W-SW 252 0 min 0,000 mm 0,0 UV-I 22 W/m -0,2 C -7,7 C 30,6 km/h (5 Bft) 98,21 %
04.02.2016 08:10 1,2 C 91 % 1025,3 hPa 0,0 l/m 18,8 km/h (3 Bft) W-SW 248 0 min 0,000 mm 0,0 UV-I 27 W/m -0,1 C -7,5 C 29,0 km/h (5 Bft) 99,17 %
04.02.2016 08:15 1,3 C 91 % 1025,4 hPa 0,0 l/m 15,2 km/h (3 Bft) W-SW 252 0 min 0,000 mm 0,0 UV-I 28 W/m -0,0 C -5,5 C 27,4 km/h (4 Bft) 100,00 %
04.02.2016 08:20 1,4 C 91 % 1025,4 hPa 0,0 l/m 14,8 km/h (3 Bft) W-SW 237 0 min 0,000 mm 0,0 UV-I 54 W/m 0,1 C -5,2 C 22,5 km/h (4 Bft) 100,00 %
04.02.2016 08:25 1,4 C 90 % 1025,4 hPa 0,0 l/m 15,6 km/h (3 Bft) SW 234 0 min 0,000 mm 0,0 UV-I 55 W/m -0,1 C -5,6 C 25,7 km/h (4 Bft) 100,00 %
04.02.2016 08:30 1,6 C 90 % 1025,5 hPa 0,0 l/m 13,5 km/h (3 Bft) SW 227 0 min 0,000 mm 0,0 UV-I 39 W/m 0,1 C -4,1 C 22,5 km/h (4 Bft) 100,00 %
04.02.2016 08:35 1,6 C 89 % 1025,5 hPa 0,0 l/m 15,4 km/h (3 Bft) W-SW 256 0 min 0,000 mm 0,0 UV-I 31 W/m -0,0 C -5,3 C 20,9 km/h (4 Bft) 100,00 %
04.02.2016 08:40 1,7 C 89 % 1025,5 hPa 0,0 l/m 15,7 km/h (3 Bft) SW 228 0 min 0,000 mm 0,0 UV-I 25 W/m 0,1 C -5,3 C 24,1 km/h (4 Bft) 98,26 %
04.02.2016 08:45 1,7 C 89 % 1025,5 hPa 0,0 l/m 17,2 km/h (3 Bft) W-SW 254 0 min 0,000 mm 0,0 UV-I 25 W/m 0,1 C -6,1 C 27,4 km/h (4 Bft) 99,19 %
04.02.2016 08:50 1,8 C 89 % 1025,5 hPa 0,0 l/m 16,3 km/h (3 Bft) W 259 0 min 0,000 mm 0,0 UV-I 30 W/m 0,2 C -5,5 C 29,0 km/h (5 Bft) 99,15 %
04.02.2016 08:55 1,8 C 88 % 1025,5 hPa 0,0 l/m 15,9 km/h (3 Bft) SW 216 0 min 0,000 mm 0,0 UV-I 53 W/m 0,0 C -5,3 C 29,0 km/h (5 Bft) 99,11 %
04.02.2016 09:00 1,9 C 88 % 1025,5 hPa 0,0 l/m 15,4 km/h (3 Bft) SW 234 0 min 0,026 mm 0,0 UV-I 79 W/m 0,1 C -4,9 C 25,7 km/h (4 Bft) 100,00 %
04.02.2016 09:05 2,0 C 88 % 1025,6 hPa 0,0 l/m 14,6 km/h (3 Bft) W-SW 253 0 min 0,000 mm 0,0 UV-I 70 W/m 0,2 C -4,3 C 20,9 km/h (4 Bft) 100,00 %
04.02.2016 09:10 2,1 C 87 % 1025,6 hPa 0,0 l/m 16,4 km/h (3 Bft) W-SW 248 0 min 0,000 mm 0,0 UV-I 40 W/m 0,2 C -5,2 C 30,6 km/h (5 Bft) 99,23 %
04.02.2016 09:15 2,1 C 86 % 1025,5 hPa 0,0 l/m 21,2 km/h (4 Bft) W 266 0 min 0,000 mm 0,0 UV-I 36 W/m 0,0 C -7,4 C 38,6 km/h (5 Bft) 98,20 %
04.02.2016 09:20 2,0 C 85 % 1025,4 hPa 0,0 l/m 16,1 km/h (3 Bft) W-SW 244 0 min 0,000 mm 0,0 UV-I 52 W/m -0,3 C -5,2 C 29,0 km/h (5 Bft) 99,23 %
04.02.2016 09:25 2,1 C 85 % 1025,5 hPa 0,0 l/m 15,2 km/h (3 Bft) SW 236 0 min 0,000 mm 0,0 UV-I 74 W/m -0,2 C -4,5 C 24,1 km/h (4 Bft) 97,17 %
04.02.2016 09:30 2,2 C 85 % 1025,5 hPa 0,0 l/m 15,5 km/h (3 Bft) S-SW 211 0 min 0,000 mm 0,0 UV-I 96 W/m -0,1 C -4,6 C 25,7 km/h (4 Bft) 96,67 %
04.02.2016 09:35 2,3 C 85 % 1025,6 hPa 0,0 l/m 12,1 km/h (2 Bft) W-SW 251 0 min 0,000 mm 0,0 UV-I 112 W/m 0,0 C -2,4 C 20,9 km/h (4 Bft) 96,85 %
04.02.2016 09:40 2,3 C 85 % 1025,5 hPa 0,0 l/m 13,7 km/h (3 Bft) SW 223 0 min 0,000 mm 0,0 UV-I 127 W/m 0,0 C -3,4 C 24,1 km/h (4 Bft) 98,15 %
04.02.2016 09:45 2,5 C 85 % 1025,5 hPa 0,0 l/m 14,9 km/h (3 Bft) W-NW 286 0 min 0,000 mm 0,0 UV-I 128 W/m 0,2 C -3,9 C 25,7 km/h (4 Bft) 96,52 %
04.02.2016 09:50 2,6 C 84 % 1025,5 hPa 0,0 l/m 16,2 km/h (3 Bft) W-SW 257 0 min 0,000 mm 0,0 UV-I 130 W/m 0,2 C -4,5 C 25,7 km/h (4 Bft) 97,58 %
04.02.2016 09:55 2,6 C 84 % 1025,5 hPa 0,0 l/m 17,2 km/h (3 Bft) W-SW 250 0 min 0,000 mm 0,0 UV-I 145 W/m 0,2 C -5,0 C 27,4 km/h (4 Bft) 98,33 %
04.02.2016 10:00 2,7 C 84 % 1025,5 hPa 0,0 l/m 15,6 km/h (3 Bft) S 186 0 min 0,050 mm 0,0 UV-I 152 W/m 0,3 C -4,0 C 27,4 km/h (4 Bft) 98,26 %
04.02.2016 10:05 2,8 C 83 % 1025,5 hPa 0,0 l/m 18,0 km/h (3 Bft) W 273 0 min 0,000 mm 0,4 UV-I 152 W/m 0,2 C -5,1 C 29,0 km/h (5 Bft) 99,15 %
04.02.2016 10:10 2,8 C 83 % 1025,6 hPa 0,0 l/m 15,5 km/h (3 Bft) W 263 0 min 0,000 mm 0,5 UV-I 151 W/m 0,2 C -3,9 C 25,7 km/h (4 Bft) 96,33 %
04.02.2016 10:15 2,9 C 82 % 1025,7 hPa 0,0 l/m 17,2 km/h (3 Bft) W 263 0 min 0,000 mm 0,0 UV-I 139 W/m 0,1 C -4,6 C 25,7 km/h (4 Bft) 98,35 %
04.02.2016 10:20 3,0 C 81 % 1025,7 hPa 0,0 l/m 16,3 km/h (3 Bft) SW 235 0 min 0,000 mm 0,0 UV-I 132 W/m 0,1 C -4,0 C 25,7 km/h (4 Bft) 100,00 %
04.02.2016 10:25 3,1 C 80 % 1025,9 hPa 0,0 l/m 16,1 km/h (3 Bft) W-SW 252 0 min 0,000 mm 0,0 UV-I 118 W/m -0,0 C -3,8 C 24,1 km/h (4 Bft) 100,00 %
04.02.2016 10:30 3,1 C 78 % 1025,8 hPa 0,0 l/m 20,9 km/h (4 Bft) W-SW 238 0 min 0,000 mm 0,0 UV-I 106 W/m -0,4 C -6,0 C 32,2 km/h (5 Bft) 100,00 %
04.02.2016 10:35 3,1 C 79 % 1025,7 hPa 0,0 l/m 19,6 km/h (3 Bft) W-SW 257 0 min 0,000 mm 0,0 UV-I 109 W/m -0,2 C -5,5 C 30,6 km/h (5 Bft) 99,15 %
04.02.2016 10:40 3,1 C 78 % 1025,8 hPa 0,0 l/m 21,1 km/h (4 Bft) W 269 0 min 0,000 mm 0,4 UV-I 138 W/m -0,4 C -6,1 C 35,4 km/h (5 Bft) 100,00 %
04.02.2016 10:45 3,2 C 78 % 1025,8 hPa 0,0 l/m 17,1 km/h (3 Bft) W-SW 257 0 min 0,000 mm 0,5 UV-I 128 W/m -0,3 C -4,2 C 27,4 km/h (4 Bft) 99,19 %
04.02.2016 10:50 3,3 C 78 % 1025,7 hPa 0,0 l/m 20,2 km/h (4 Bft) W-SW 255 0 min 0,000 mm 0,4 UV-I 129 W/m -0,2 C -5,5 C 35,4 km/h (5 Bft) 99,13 %
04.02.2016 10:55 3,3 C 78 % 1025,7 hPa 0,0 l/m 19,4 km/h (3 Bft) SW 216 0 min 0,000 mm 0,5 UV-I 147 W/m -0,2 C -5,1 C 30,6 km/h (5 Bft) 98,35 %
04.02.2016 11:00 3,4 C 78 % 1025,6 hPa 0,0 l/m 16,4 km/h (3 Bft) W-SW 249 0 min 0,077 mm 0,6 UV-I 186 W/m -0,1 C -3,6 C 29,0 km/h (5 Bft) 100,00 %
04.02.2016 11:05 3,5 C 78 % 1025,6 hPa 0,0 l/m 18,7 km/h (3 Bft) SW 222 0 min 0,000 mm 0,6 UV-I 155 W/m 0,0 C -4,6 C 30,6 km/h (5 Bft) 99,11 %
04.02.2016 11:10 3,6 C 77 % 1025,5 hPa 0,0 l/m 17,1 km/h (3 Bft) SO 143 0 min 0,000 mm 0,6 UV-I 180 W/m -0,0 C -3,7 C 30,6 km/h (5 Bft) 100,00 %
04.02.2016 11:15 3,5 C 77 % 1025,5 hPa 0,0 l/m 20,9 km/h (4 Bft) SW 221 0 min 0,000 mm 0,1 UV-I 120 W/m -0,1 C -5,5 C 35,4 km/h (5 Bft) 98,15 %
04.02.2016 11:20 3,5 C 77 % 1025,5 hPa 0,0 l/m 19,3 km/h (3 Bft) W-SW 238 0 min 0,000 mm 0,0 UV-I 69 W/m -0,1 C -4,8 C 32,2 km/h (5 Bft) 96,85 %
04.02.2016 11:25 3,4 C 78 % 1025,5 hPa 0,0 l/m 19,0 km/h (3 Bft) W 265 0 min 0,000 mm 0,0 UV-I 52 W/m -0,1 C -4,8 C 32,2 km/h (5 Bft) 97,50 %
04.02.2016 11:30 3,5 C 77 % 1025,3 hPa 0,0 l/m 19,3 km/h (3 Bft) W 265 0 min 0,000 mm 0,0 UV-I 55 W/m -0,1 C -4,8 C 37,0 km/h (5 Bft) 98,11 %
04.02.2016 11:35 3,5 C 78 % 1025,3 hPa 0,0 l/m 19,2 km/h (3 Bft) W 261 0 min 0,000 mm 0,0 UV-I 66 W/m 0,0 C -4,8 C 29,0 km/h (5 Bft) 96,69 %
04.02.2016 11:40 3,6 C 77 % 1025,3 hPa 0,0 l/m 18,1 km/h (3 Bft) W 276 0 min 0,000 mm 0,0 UV-I 90 W/m -0,0 C -4,2 C 29,0 km/h (5 Bft) 96,75 %
04.02.2016 11:45 3,7 C 78 % 1025,2 hPa 0,0 l/m 15,8 km/h (3 Bft) W 269 0 min 0,000 mm 0,0 UV-I 97 W/m 0,2 C -2,9 C 30,6 km/h (5 Bft) 97,46 %
04.02.2016 11:50 3,8 C 76 % 1025,2 hPa 0,0 l/m 17,4 km/h (3 Bft) SW 221 0 min 0,000 mm 0,6 UV-I 141 W/m -0,0 C -3,6 C 30,6 km/h (5 Bft) 97,25 %
04.02.2016 11:55 4,0 C 75 % 1025,0 hPa 0,0 l/m 21,4 km/h (4 Bft) W 263 0 min 0,000 mm 0,8 UV-I 176 W/m -0,0 C -5,0 C 40,2 km/h (6 Bft) 98,20 %
04.02.2016 12:00 4,1 C 75 % 1025,0 hPa 0,0 l/m 20,5 km/h (4 Bft) W 263 0 min 0,076 mm 0,9 UV-I 186 W/m 0,1 C -4,5 C 37,0 km/h (5 Bft) 99,17 %
04.02.2016 12:05 4,2 C 74 % 1024,8 hPa 0,0 l/m 28,1 km/h (4 Bft) W-SW 249 5 min 0,000 mm 1,1 UV-I 287 W/m -0,0 C -7,0 C 45,1 km/h (6 Bft) 98,26 %
04.02.2016 12:10 4,3 C 74 % 1024,8 hPa 0,0 l/m 26,0 km/h (4 Bft) SW 234 5 min 0,000 mm 1,2 UV-I 314 W/m 0,1 C -6,2 C 51,5 km/h (7 Bft) 100,00 %
04.02.2016 12:15 4,4 C 74 % 1024,8 hPa 0,0 l/m 25,6 km/h (4 Bft) W 262 5 min 0,000 mm 1,2 UV-I 387 W/m 0,2 C -5,9 C 45,1 km/h (6 Bft) 98,33 %
04.02.2016 12:20 4,3 C 74 % 1024,7 hPa 0,0 l/m 31,8 km/h (5 Bft) W-SW 250 5 min 0,000 mm 1,1 UV-I 263 W/m 0,1 C -7,8 C 46,7 km/h (6 Bft) 100,00 %
04.02.2016 12:25 4,1 C 75 % 1025,0 hPa 0,0 l/m 28,2 km/h (4 Bft) W-SW 252 0 min 0,000 mm 0,7 UV-I 172 W/m 0,1 C -7,1 C 45,1 km/h (6 Bft) 98,31 %
04.02.2016 12:30 3,5 C 81 % 1025,1 hPa 0,0 l/m 27,0 km/h (4 Bft) SW 230 0 min 0,000 mm 0,7 UV-I 189 W/m 0,6 C -7,6 C 48,3 km/h (6 Bft) 100,00 %
04.02.2016 12:35 3,0 C 86 % 1025,0 hPa 0,0 l/m 23,6 km/h (4 Bft) SW 234 0 min 0,000 mm 0,8 UV-I 220 W/m 0,9 C -7,2 C 35,4 km/h (5 Bft) 100,00 %
04.02.2016 12:40 2,7 C 87 % 1024,9 hPa 0,0 l/m 24,9 km/h (4 Bft) W-SW 252 0 min 0,000 mm 0,7 UV-I 208 W/m 0,8 C -8,0 C 37,0 km/h (5 Bft) 99,15 %
04.02.2016 12:45 2,5 C 88 % 1024,9 hPa 0,0 l/m 23,4 km/h (4 Bft) SW 227 0 min 0,000 mm 0,4 UV-I 116 W/m 0,7 C -7,8 C 35,4 km/h (5 Bft) 98,35 %
04.02.2016 12:50 2,4 C 88 % 1024,9 hPa 0,0 l/m 23,5 km/h (4 Bft) W-SW 257 0 min 0,000 mm 0,0 UV-I 78 W/m 0,6 C -7,9 C 35,4 km/h (5 Bft) 100,00 %
04.02.2016 12:55 2,4 C 88 % 1024,8 hPa 0,0 l/m 17,6 km/h (3 Bft) W 261 0 min 0,000 mm 0,0 UV-I 74 W/m 0,6 C -5,4 C 35,4 km/h (5 Bft) 98,26 %
04.02.2016 13:00 2,4 C 88 % 1024,8 hPa 0,0 l/m 22,8 km/h (4 Bft) W-SW 245 0 min 0,101 mm 0,0 UV-I 79 W/m 0,6 C -7,7 C 30,6 km/h (5 Bft) 99,15 %
04.02.2016 13:05 2,5 C 87 % 1024,7 hPa 0,0 l/m 21,0 km/h (4 Bft) SW 215 0 min 0,000 mm 0,0 UV-I 68 W/m 0,6 C -6,8 C 40,2 km/h (6 Bft) 100,00 %
04.02.2016 13:10 2,5 C 87 % 1024,7 hPa 0,0 l/m 20,8 km/h (4 Bft) W-SW 250 0 min 0,000 mm 0,0 UV-I 77 W/m 0,6 C -6,7 C 33,8 km/h (5 Bft) 98,31 %
04.02.2016 13:15 2,7 C 86 % 1024,6 hPa 0,0 l/m 22,2 km/h (4 Bft) SW 229 0 min 0,000 mm 0,1 UV-I 87 W/m 0,6 C -7,0 C 35,4 km/h (5 Bft) 100,00 %
04.02.2016 13:20 2,8 C 86 % 1024,4 hPa 0,0 l/m 22,4 km/h (4 Bft) W-SW 240 0 min 0,000 mm 0,6 UV-I 149 W/m 0,7 C -7,0 C 33,8 km/h (5 Bft) 98,26 %
04.02.2016 13:25 2,9 C 85 % 1024,3 hPa 0,0 l/m 19,6 km/h (3 Bft) W 265 0 min 0,000 mm 0,8 UV-I 186 W/m 0,6 C -5,7 C 33,8 km/h (5 Bft) 96,75 %
04.02.2016 13:30 3,2 C 85 % 1024,3 hPa 0,0 l/m 17,5 km/h (3 Bft) W-SW 244 5 min 0,000 mm 0,8 UV-I 236 W/m 0,9 C -4,4 C 27,4 km/h (4 Bft) 96,84 %
04.02.2016 13:35 3,4 C 82 % 1024,2 hPa 0,0 l/m 23,2 km/h (4 Bft) SW 236 0 min 0,000 mm 0,8 UV-I 221 W/m 0,6 C -6,5 C 38,6 km/h (5 Bft) 97,73 %
04.02.2016 13:40 3,5 C 82 % 1024,1 hPa 0,0 l/m 19,2 km/h (3 Bft) SW 223 0 min 0,000 mm 0,6 UV-I 172 W/m 0,7 C -4,8 C 32,2 km/h (5 Bft) 97,50 %
04.02.2016 13:45 3,5 C 82 % 1024,1 hPa 0,0 l/m 17,3 km/h (3 Bft) SW 234 0 min 0,000 mm 0,5 UV-I 118 W/m 0,7 C -3,9 C 30,6 km/h (5 Bft) 95,04 %
04.02.2016 13:50 3,4 C 82 % 1023,8 hPa 0,0 l/m 17,2 km/h (3 Bft) SW 217 0 min 0,000 mm 0,2 UV-I 105 W/m 0,6 C -4,0 C 33,8 km/h (5 Bft) 96,52 %
04.02.2016 13:55 3,4 C 83 % 1023,7 hPa 0,0 l/m 20,2 km/h (4 Bft) S-SW 207 0 min 0,000 mm 0,0 UV-I 94 W/m 0,8 C -5,3 C 30,6 km/h (5 Bft) 100,00 %
04.02.2016 14:00 3,3 C 82 % 1023,6 hPa 0,0 l/m 17,2 km/h (3 Bft) SW 228 0 min 0,077 mm 0,0 UV-I 94 W/m 0,5 C -4,1 C 32,2 km/h (5 Bft) 99,17 %
04.02.2016 14:05 3,3 C 83 % 1023,6 hPa 0,0 l/m 18,1 km/h (3 Bft) S-SW 207 0 min 0,000 mm 0,0 UV-I 107 W/m 0,7 C -4,5 C 32,2 km/h (5 Bft) 99,11 %
04.02.2016 14:10 3,2 C 84 % 1023,6 hPa 0,0 l/m 20,2 km/h (4 Bft) SW 227 0 min 0,000 mm 0,0 UV-I 91 W/m 0,8 C -5,6 C 32,2 km/h (5 Bft) 99,17 %
04.02.2016 14:15 3,2 C 84 % 1023,6 hPa 0,0 l/m 16,4 km/h (3 Bft) W-SW 243 0 min 0,000 mm 0,0 UV-I 76 W/m 0,8 C -3,8 C 27,4 km/h (4 Bft) 100,00 %
04.02.2016 14:20 3,3 C 83 % 1023,5 hPa 0,0 l/m 19,6 km/h (3 Bft) SW 234 0 min 0,000 mm 0,0 UV-I 95 W/m 0,7 C -5,2 C 30,6 km/h (5 Bft) 99,12 %
04.02.2016 14:25 3,4 C 82 % 1023,4 hPa 0,0 l/m 19,8 km/h (3 Bft) W-SW 248 0 min 0,000 mm 0,0 UV-I 101 W/m 0,6 C -5,2 C 37,0 km/h (5 Bft) 99,17 %
04.02.2016 14:30 3,4 C 82 % 1023,5 hPa 0,0 l/m 16,4 km/h (3 Bft) W-SW 242 0 min 0,000 mm 0,0 UV-I 87 W/m 0,6 C -3,6 C 30,6 km/h (5 Bft) 98,97 %
04.02.2016 14:35 3,4 C 81 % 1023,5 hPa 0,0 l/m 19,9 km/h (4 Bft) W-SW 240 0 min 0,000 mm 0,0 UV-I 105 W/m 0,5 C -5,2 C 33,8 km/h (5 Bft) 100,00 %
04.02.2016 14:40 3,4 C 77 % 1023,4 hPa 0,0 l/m 26,0 km/h (4 Bft) W-SW 252 0 min 0,000 mm 0,4 UV-I 121 W/m -0,2 C -7,4 C 40,2 km/h (6 Bft) 100,00 %
04.02.2016 14:45 3,4 C 76 % 1023,5 hPa 0,0 l/m 25,1 km/h (4 Bft) W-SW 248 0 min 0,000 mm 0,3 UV-I 103 W/m -0,4 C -7,1 C 41,8 km/h (6 Bft) 100,00 %
04.02.2016 14:50 3,3 C 77 % 1023,6 hPa 0,0 l/m 24,5 km/h (4 Bft) W-SW 250 0 min 0,000 mm 0,0 UV-I 100 W/m -0,3 C -7,1 C 38,6 km/h (5 Bft) 98,36 %
04.02.2016 14:55 3,2 C 78 % 1023,6 hPa 0,0 l/m 24,9 km/h (4 Bft) W 259 0 min 0,000 mm 0,0 UV-I 103 W/m -0,3 C -7,3 C 41,8 km/h (6 Bft) 99,19 %
04.02.2016 15:00 3,2 C 79 % 1023,6 hPa 0,0 l/m 22,4 km/h (4 Bft) W-SW 256 0 min 0,076 mm 0,0 UV-I 104 W/m -0,1 C -6,5 C 37,0 km/h (5 Bft) 100,00 %
04.02.2016 15:05 3,3 C 79 % 1023,5 hPa 0,0 l/m 20,9 km/h (4 Bft) W-SW 246 0 min 0,000 mm 0,0 UV-I 106 W/m 0,0 C -5,7 C 43,5 km/h (6 Bft) 99,19 %
04.02.2016 15:10 3,4 C 79 % 1023,5 hPa 0,0 l/m 20,7 km/h (4 Bft) W-SW 246 0 min 0,000 mm 0,0 UV-I 114 W/m 0,1 C -5,5 C 30,6 km/h (5 Bft) 100,00 %
04.02.2016 15:15 3,5 C 78 % 1023,4 hPa 0,0 l/m 22,4 km/h (4 Bft) W-NW 294 0 min 0,000 mm 0,0 UV-I 117 W/m 0,0 C -6,1 C 35,4 km/h (5 Bft) 99,17 %
04.02.2016 15:20 3,6 C 78 % 1023,4 hPa 0,0 l/m 20,4 km/h (4 Bft) W 281 0 min 0,000 mm 0,0 UV-I 113 W/m 0,1 C -5,1 C 35,4 km/h (5 Bft) 97,32 %
04.02.2016 15:25 3,7 C 78 % 1023,5 hPa 0,0 l/m 16,3 km/h (3 Bft) W 276 0 min 0,000 mm 0,0 UV-I 101 W/m 0,2 C -3,2 C 32,2 km/h (5 Bft) 97,52 %
04.02.2016 15:30 3,6 C 77 % 1023,5 hPa 0,0 l/m 21,2 km/h (4 Bft) W-SW 252 0 min 0,000 mm 0,0 UV-I 81 W/m -0,0 C -5,5 C 35,4 km/h (5 Bft) 98,25 %
04.02.2016 15:35 3,6 C 77 % 1023,4 hPa 0,0 l/m 22,8 km/h (4 Bft) W-SW 248 0 min 0,000 mm 0,0 UV-I 67 W/m -0,0 C -6,1 C 37,0 km/h (5 Bft) 95,97 %
04.02.2016 15:40 3,5 C 77 % 1023,3 hPa 0,0 l/m 18,5 km/h (3 Bft) W-SW 243 0 min 0,000 mm 0,0 UV-I 55 W/m -0,1 C -4,5 C 29,0 km/h (5 Bft) 97,30 %
04.02.2016 15:45 3,5 C 78 % 1023,3 hPa 0,0 l/m 19,5 km/h (3 Bft) W-SW 250 0 min 0,000 mm 0,0 UV-I 57 W/m 0,0 C -4,9 C 37,0 km/h (5 Bft) 95,65 %
04.02.2016 15:50 3,5 C 78 % 1023,2 hPa 0,0 l/m 19,5 km/h (3 Bft) W 267 0 min 0,000 mm 0,0 UV-I 68 W/m 0,0 C -4,9 C 29,0 km/h (5 Bft) 97,52 %
04.02.2016 15:55 3,5 C 78 % 1023,1 hPa 0,0 l/m 19,7 km/h (3 Bft) W-SW 248 0 min 0,000 mm 0,0 UV-I 68 W/m 0,0 C -5,0 C 30,6 km/h (5 Bft) 100,00 %
04.02.2016 16:00 3,5 C 78 % 1022,9 hPa 0,0 l/m 19,5 km/h (3 Bft) S-SW 196 0 min 0,076 mm 0,0 UV-I 52 W/m 0,0 C -4,9 C 30,6 km/h (5 Bft) 98,39 %
04.02.2016 16:05 3,5 C 79 % 1022,9 hPa 0,0 l/m 14,7 km/h (3 Bft) W-SW 245 0 min 0,000 mm 0,0 UV-I 48 W/m 0,2 C -2,6 C 22,5 km/h (4 Bft) 99,09 %
04.02.2016 16:10 3,5 C 78 % 1022,9 hPa 0,0 l/m 18,3 km/h (3 Bft) W-SW 242 0 min 0,000 mm 0,0 UV-I 43 W/m 0,0 C -4,4 C 29,0 km/h (5 Bft) 99,19 %
04.02.2016 16:15 3,5 C 78 % 1022,8 hPa 0,0 l/m 16,8 km/h (3 Bft) W-SW 253 0 min 0,000 mm 0,0 UV-I 30 W/m 0,0 C -3,7 C 33,8 km/h (5 Bft) 99,15 %
04.02.2016 16:20 3,5 C 78 % 1022,8 hPa 0,0 l/m 15,9 km/h (3 Bft) S 188 0 min 0,000 mm 0,0 UV-I 26 W/m 0,0 C -3,2 C 27,4 km/h (4 Bft) 100,00 %
04.02.2016 16:25 3,5 C 78 % 1022,8 hPa 0,0 l/m 11,8 km/h (2 Bft) W 260 0 min 0,000 mm 0,0 UV-I 16 W/m 0,0 C -0,8 C 22,5 km/h (4 Bft) 100,00 %
04.02.2016 16:30 3,5 C 78 % 1022,8 hPa 0,0 l/m 15,3 km/h (3 Bft) S-SW 212 0 min 0,000 mm 0,0 UV-I 9 W/m 0,0 C -2,9 C 24,1 km/h (4 Bft) 100,00 %
04.02.2016 16:35 3,4 C 78 % 1022,8 hPa 0,0 l/m 18,1 km/h (3 Bft) W-SW 257 0 min 0,000 mm 0,0 UV-I 9 W/m -0,1 C -4,4 C 30,6 km/h (5 Bft) 100,00 %
04.02.2016 16:40 3,4 C 79 % 1022,8 hPa 0,0 l/m 23,0 km/h (4 Bft) W-SW 242 0 min 0,000 mm 0,0 UV-I 8 W/m 0,1 C -6,4 C 45,1 km/h (6 Bft) 99,17 %
04.02.2016 16:45 3,3 C 80 % 1022,7 hPa 0,0 l/m 22,9 km/h (4 Bft) W 277 0 min 0,000 mm 0,0 UV-I 5 W/m 0,2 C -6,5 C 38,6 km/h (5 Bft) 98,35 %
04.02.2016 16:50 3,2 C 81 % 1022,7 hPa 0,0 l/m 16,7 km/h (3 Bft) W 274 0 min 0,000 mm 0,0 UV-I 7 W/m 0,3 C -4,0 C 27,4 km/h (4 Bft) 100,00 %
04.02.2016 16:55 3,0 C 82 % 1022,6 hPa 0,0 l/m 15,5 km/h (3 Bft) W-SW 238 0 min 0,000 mm 0,0 UV-I 7 W/m 0,2 C -3,6 C 29,0 km/h (5 Bft) 100,00 %
04.02.2016 17:00 2,9 C 82 % 1022,5 hPa 0,0 l/m 13,0 km/h (3 Bft) NW 312 0 min 0,025 mm 0,0 UV-I 7 W/m 0,1 C -2,3 C 19,3 km/h (3 Bft) 98,39 %
04.02.2016 17:05 2,9 C 83 % 1022,4 hPa 0,0 l/m 12,6 km/h (3 Bft) W-SW 253 0 min 0,000 mm 0,0 UV-I 2 W/m 0,3 C -2,1 C 22,5 km/h (4 Bft) 96,30 %
04.02.2016 17:10 2,9 C 83 % 1022,4 hPa 0,0 l/m 12,4 km/h (3 Bft) SW 235 0 min 0,000 mm 0,0 UV-I 0 W/m 0,3 C -1,9 C 20,9 km/h (4 Bft) 98,53 %
04.02.2016 17:15 2,9 C 83 % 1022,2 hPa 0,0 l/m 11,6 km/h (2 Bft) W 280 0 min 0,000 mm 0,0 UV-I 0 W/m 0,3 C -1,4 C 20,9 km/h (4 Bft) 100,00 %
04.02.2016 17:20 2,9 C 83 % 1022,3 hPa 0,0 l/m 14,7 km/h (3 Bft) W 261 0 min 0,000 mm 0,0 UV-I 0 W/m 0,3 C -3,3 C 27,4 km/h (4 Bft) 98,11 %
04.02.2016 17:25 2,8 C 84 % 1022,2 hPa 0,0 l/m 15,8 km/h (3 Bft) W 265 0 min 0,000 mm 0,0 UV-I 0 W/m 0,4 C -4,0 C 27,4 km/h (4 Bft) 97,46 %
04.02.2016 17:30 2,8 C 85 % 1022,1 hPa 0,0 l/m 20,9 km/h (4 Bft) W 267 0 min 0,000 mm 0,0 UV-I 0 W/m 0,5 C -6,4 C 37,0 km/h (5 Bft) 97,50 %
04.02.2016 17:35 2,7 C 86 % 1022,2 hPa 0,0 l/m 15,2 km/h (3 Bft) S-SW 208 0 min 0,000 mm 0,0 UV-I 0 W/m 0,6 C -3,8 C 24,1 km/h (4 Bft) 96,61 %
04.02.2016 17:40 2,6 C 87 % 1022,2 hPa 0,0 l/m 14,5 km/h (3 Bft) SW 234 0 min 0,000 mm 0,0 UV-I 0 W/m 0,7 C -3,5 C 24,1 km/h (4 Bft) 96,58 %
04.02.2016 17:45 2,4 C 88 % 1022,2 hPa 0,0 l/m 17,9 km/h (3 Bft) SW 223 0 min 0,000 mm 0,0 UV-I 0 W/m 0,6 C -5,6 C 29,0 km/h (5 Bft) 97,52 %
04.02.2016 17:50 2,3 C 89 % 1022,1 hPa 0,0 l/m 16,7 km/h (3 Bft) SW 232 0 min 0,000 mm 0,0 UV-I 0 W/m 0,7 C -5,1 C 25,7 km/h (4 Bft) 98,21 %
04.02.2016 17:55 2,2 C 90 % 1022,0 hPa 0,0 l/m 16,1 km/h (3 Bft) SW 217 0 min 0,000 mm 0,0 UV-I 0 W/m 0,7 C -4,9 C 25,7 km/h (4 Bft) 95,83 %
04.02.2016 18:00 2,1 C 90 % 1022,0 hPa 0,0 l/m 13,5 km/h (3 Bft) SW 227 0 min 0,026 mm 0,0 UV-I 0 W/m 0,6 C -3,6 C 25,7 km/h (4 Bft) 99,11 %
04.02.2016 18:05 2,1 C 91 % 1021,9 hPa 0,0 l/m 10,8 km/h (2 Bft) S 189 0 min 0,000 mm 0,0 UV-I 0 W/m 0,8 C -1,7 C 19,3 km/h (3 Bft) 98,26 %
04.02.2016 18:10 2,0 C 91 % 1021,8 hPa 0,0 l/m 15,2 km/h (3 Bft) W-SW 248 0 min 0,000 mm 0,0 UV-I 0 W/m 0,7 C -4,7 C 24,1 km/h (4 Bft) 100,00 %
04.02.2016 18:15 1,9 C 91 % 1021,8 hPa 0,0 l/m 15,9 km/h (3 Bft) SW 230 0 min 0,000 mm 0,0 UV-I 0 W/m 0,6 C -5,2 C 27,4 km/h (4 Bft) 100,00 %
04.02.2016 18:20 1,9 C 91 % 1021,7 hPa 0,0 l/m 17,9 km/h (3 Bft) W-SW 238 0 min 0,000 mm 0,0 UV-I 0 W/m 0,6 C -6,2 C 27,4 km/h (4 Bft) 100,00 %
04.02.2016 18:25 1,9 C 91 % 1021,7 hPa 0,0 l/m 15,8 km/h (3 Bft) SW 236 0 min 0,000 mm 0,0 UV-I 0 W/m 0,6 C -5,1 C 24,1 km/h (4 Bft) 100,00 %
04.02.2016 18:30 1,8 C 92 % 1021,7 hPa 0,0 l/m 14,4 km/h (3 Bft) S-SO 157 0 min 0,000 mm 0,0 UV-I 0 W/m 0,6 C -4,5 C 22,5 km/h (4 Bft) 99,06 %
04.02.2016 18:35 1,8 C 92 % 1021,5 hPa 0,0 l/m 14,1 km/h (3 Bft) W-SW 257 0 min 0,000 mm 0,0 UV-I 0 W/m 0,6 C -4,3 C 25,7 km/h (4 Bft) 100,00 %
04.02.2016 18:40 1,8 C 92 % 1021,4 hPa 0,0 l/m 15,7 km/h (3 Bft) SW 215 0 min 0,000 mm 0,0 UV-I 0 W/m 0,6 C -5,2 C 27,4 km/h (4 Bft) 98,31 %
04.02.2016 18:45 1,8 C 92 % 1021,5 hPa 0,0 l/m 14,1 km/h (3 Bft) SW 220 0 min 0,000 mm 0,0 UV-I 0 W/m 0,6 C -4,3 C 25,7 km/h (4 Bft) 100,00 %
04.02.2016 18:50 1,8 C 92 % 1021,4 hPa 0,0 l/m 15,7 km/h (3 Bft) W-SW 243 0 min 0,000 mm 0,0 UV-I 0 W/m 0,6 C -5,2 C 24,1 km/h (4 Bft) 98,29 %
04.02.2016 18:55 1,8 C 92 % 1021,3 hPa 0,0 l/m 16,5 km/h (3 Bft) S 177 0 min 0,000 mm 0,0 UV-I 0 W/m 0,6 C -5,6 C 27,4 km/h (4 Bft) 100,00 %
04.02.2016 19:00 1,8 C 92 % 1021,2 hPa 0,0 l/m 15,0 km/h (3 Bft) S-SW 206 0 min 0,000 mm 0,0 UV-I 0 W/m 0,6 C -4,8 C 27,4 km/h (4 Bft) 99,22 %
04.02.2016 19:05 1,7 C 92 % 1021,2 hPa 0,0 l/m 11,8 km/h (2 Bft) SW 227 0 min 0,000 mm 0,0 UV-I 0 W/m 0,5 C -2,9 C 22,5 km/h (4 Bft) 100,00 %
04.02.2016 19:10 1,7 C 92 % 1020,9 hPa 0,0 l/m 11,9 km/h (2 Bft) SW 228 0 min 0,000 mm 0,0 UV-I 0 W/m 0,5 C -3,0 C 19,3 km/h (3 Bft) 99,19 %
04.02.2016 19:15 1,7 C 92 % 1020,8 hPa 0,0 l/m 8,6 km/h (2 Bft) W-SW 240 0 min 0,000 mm 0,0 UV-I 0 W/m 0,5 C -0,4 C 14,5 km/h (3 Bft) 99,17 %
04.02.2016 19:20 1,7 C 92 % 1020,6 hPa 0,2 l/m 7,9 km/h (2 Bft) SW 217 0 min 0,000 mm 0,0 UV-I 0 W/m 0,5 C 0,2 C 16,1 km/h (3 Bft) 100,00 %
04.02.2016 19:25 1,7 C 92 % 1020,7 hPa 0,0 l/m 8,9 km/h (2 Bft) S 174 0 min 0,000 mm 0,0 UV-I 0 W/m 0,5 C -0,7 C 17,7 km/h (3 Bft) 99,08 %
04.02.2016 19:30 1,7 C 92 % 1020,7 hPa 0,0 l/m 9,4 km/h (2 Bft) S-SW 210 0 min 0,000 mm 0,0 UV-I 0 W/m 0,5 C -1,1 C 16,1 km/h (3 Bft) 96,90 %
04.02.2016 19:35 1,7 C 93 % 1020,5 hPa 0,0 l/m 9,8 km/h (2 Bft) SW 232 0 min 0,000 mm 0,0 UV-I 0 W/m 0,7 C -1,4 C 17,7 km/h (3 Bft) 96,12 %
04.02.2016 19:40 1,7 C 93 % 1020,5 hPa 0,0 l/m 11,3 km/h (2 Bft) SW 233 0 min 0,000 mm 0,0 UV-I 0 W/m 0,7 C -2,6 C 19,3 km/h (3 Bft) 97,58 %
04.02.2016 19:45 1,7 C 93 % 1020,5 hPa 0,0 l/m 8,9 km/h (2 Bft) W-SW 241 0 min 0,000 mm 0,0 UV-I 0 W/m 0,7 C -0,7 C 14,5 km/h (3 Bft) 98,25 %
04.02.2016 19:50 1,6 C 93 % 1020,5 hPa 0,0 l/m 9,2 km/h (2 Bft) SW 225 0 min 0,000 mm 0,0 UV-I 0 W/m 0,6 C -1,0 C 16,1 km/h (3 Bft) 95,97 %
04.02.2016 19:55 1,6 C 93 % 1020,5 hPa 0,0 l/m 7,7 km/h (2 Bft) S 180 0 min 0,000 mm 0,0 UV-I 0 W/m 0,6 C 0,3 C 12,9 km/h (3 Bft) 95,50 %
04.02.2016 20:00 1,6 C 93 % 1020,5 hPa 0,0 l/m 6,6 km/h (2 Bft) S-SW 213 0 min 0,000 mm 0,0 UV-I 0 W/m 0,6 C 1,4 C 11,3 km/h (2 Bft) 96,61 %
04.02.2016 20:05 1,6 C 93 % 1020,4 hPa 0,0 l/m 8,8 km/h (2 Bft) S-SW 196 0 min 0,000 mm 0,0 UV-I 0 W/m 0,6 C -0,7 C 14,5 km/h (3 Bft) 100,00 %
04.02.2016 20:10 1,6 C 93 % 1020,3 hPa 0,0 l/m 7,6 km/h (2 Bft) S-SW 206 0 min 0,000 mm 0,0 UV-I 0 W/m 0,6 C 0,4 C 14,5 km/h (3 Bft) 98,29 %
04.02.2016 20:15 1,5 C 93 % 1020,2 hPa 0,2 l/m 8,0 km/h (2 Bft) S 174 0 min 0,000 mm 0,0 UV-I 0 W/m 0,5 C -0,1 C 12,9 km/h (3 Bft) 100,00 %
04.02.2016 20:20 1,3 C 93 % 1020,1 hPa 0,0 l/m 9,6 km/h (2 Bft) S-SW 203 0 min 0,000 mm 0,0 UV-I 0 W/m 0,3 C -1,7 C 17,7 km/h (3 Bft) 99,19 %
04.02.2016 20:25 1,3 C 94 % 1020,0 hPa 0,0 l/m 8,8 km/h (2 Bft) S-SW 197 0 min 0,000 mm 0,0 UV-I 0 W/m 0,4 C -1,0 C 17,7 km/h (3 Bft) 99,06 %
04.02.2016 20:30 1,3 C 94 % 1019,9 hPa 0,0 l/m 6,1 km/h (2 Bft) S-SW 194 0 min 0,000 mm 0,0 UV-I 0 W/m 0,4 C 1,3 C 17,7 km/h (3 Bft) 100,00 %
04.02.2016 20:35 1,2 C 94 % 1019,9 hPa 0,0 l/m 6,2 km/h (2 Bft) S 180 0 min 0,000 mm 0,0 UV-I 0 W/m 0,3 C 1,2 C 11,3 km/h (2 Bft) 100,00 %
04.02.2016 20:40 1,1 C 94 % 1019,8 hPa 0,0 l/m 5,1 km/h (1 Bft) S-SO 161 0 min 0,000 mm 0,0 UV-I 0 W/m 0,2 C 1,1 C 9,7 km/h (2 Bft) 100,00 %
04.02.2016 20:45 1,0 C 94 % 1019,7 hPa 0,2 l/m 2,2 km/h (1 Bft) S 180 0 min 0,000 mm 0,0 UV-I 0 W/m 0,1 C 1,0 C 6,4 km/h (2 Bft) 98,39 %
04.02.2016 20:50 1,0 C 95 % 1019,6 hPa 0,0 l/m 3,8 km/h (1 Bft) S 171 0 min 0,000 mm 0,0 UV-I 0 W/m 0,3 C 1,0 C 9,7 km/h (2 Bft) 97,44 %
04.02.2016 20:55 1,0 C 95 % 1019,7 hPa 0,0 l/m 0,4 km/h (0 Bft) S 170 0 min 0,000 mm 0,0 UV-I 0 W/m 0,3 C 1,0 C 3,2 km/h (1 Bft) 100,00 %
04.02.2016 21:00 1,0 C 95 % 1019,7 hPa 0,0 l/m 0,6 km/h (0 Bft) S 170 0 min 0,000 mm 0,0 UV-I 0 W/m 0,3 C 1,0 C 3,2 km/h (1 Bft) 98,33 %
04.02.2016 21:05 1,0 C 95 % 1019,7 hPa 0,0 l/m 1,3 km/h (1 Bft) S 170 0 min 0,000 mm 0,0 UV-I 0 W/m 0,3 C 1,0 C 3,2 km/h (1 Bft) 100,00 %
04.02.2016 21:10 1,0 C 95 % 1019,7 hPa 0,0 l/m 0,8 km/h (0 Bft) SO 141 0 min 0,000 mm 0,0 UV-I 0 W/m 0,3 C 1,0 C 4,8 km/h (1 Bft) 98,21 %
04.02.2016 21:15 1,0 C 95 % 1019,7 hPa 0,0 l/m 2,4 km/h (1 Bft) S-SW 200 0 min 0,000 mm 0,0 UV-I 0 W/m 0,3 C 1,0 C 6,4 km/h (2 Bft) 98,37 %
04.02.2016 21:20 1,1 C 95 % 1019,8 hPa 0,0 l/m 4,5 km/h (1 Bft) S-SW 205 0 min 0,000 mm 0,0 UV-I 0 W/m 0,4 C 1,1 C 8,0 km/h (2 Bft) 99,17 %
04.02.2016 21:25 1,2 C 95 % 1019,6 hPa 0,2 l/m 6,0 km/h (2 Bft) S 184 0 min 0,000 mm 0,0 UV-I 0 W/m 0,5 C 1,2 C 11,3 km/h (2 Bft) 99,08 %
04.02.2016 21:30 1,3 C 95 % 1019,6 hPa 0,0 l/m 12,7 km/h (3 Bft) W-SW 244 0 min 0,000 mm 0,0 UV-I 0 W/m 0,6 C -4,0 C 20,9 km/h (4 Bft) 99,15 %
04.02.2016 21:35 1,4 C 94 % 1019,5 hPa 0,0 l/m 12,2 km/h (2 Bft) W-SW 240 0 min 0,000 mm 0,0 UV-I 0 W/m 0,5 C -3,5 C 24,1 km/h (4 Bft) 97,39 %
04.02.2016 21:40 1,6 C 94 % 1019,5 hPa 0,2 l/m 15,7 km/h (3 Bft) SW 224 0 min 0,000 mm 0,0 UV-I 0 W/m 0,7 C -5,4 C 27,4 km/h (4 Bft) 96,69 %
04.02.2016 21:45 1,5 C 94 % 1019,6 hPa 0,0 l/m 15,8 km/h (3 Bft) W-SW 248 0 min 0,000 mm 0,0 UV-I 0 W/m 0,6 C -5,6 C 27,4 km/h (4 Bft) 97,56 %
04.02.2016 21:50 1,4 C 94 % 1019,6 hPa 0,2 l/m 14,9 km/h (3 Bft) W-SW 242 0 min 0,000 mm 0,0 UV-I 0 W/m 0,5 C -5,2 C 22,5 km/h (4 Bft) 98,26 %
04.02.2016 21:55 1,4 C 94 % 1019,6 hPa 0,0 l/m 17,5 km/h (3 Bft) SW 228 0 min 0,000 mm 0,0 UV-I 0 W/m 0,5 C -6,6 C 25,7 km/h (4 Bft) 96,40 %
04.02.2016 22:00 1,4 C 94 % 1019,7 hPa 0,2 l/m 16,2 km/h (3 Bft) W-SW 249 0 min 0,000 mm 0,0 UV-I 0 W/m 0,5 C -6,0 C 27,4 km/h (4 Bft) 97,46 %
04.02.2016 22:05 1,4 C 95 % 1019,7 hPa 0,0 l/m 15,4 km/h (3 Bft) S-SW 211 0 min 0,000 mm 0,0 UV-I 0 W/m 0,7 C -5,5 C 25,7 km/h (4 Bft) 97,60 %
04.02.2016 22:10 1,4 C 95 % 1019,8 hPa 0,0 l/m 14,9 km/h (3 Bft) W-SW 244 0 min 0,000 mm 0,0 UV-I 0 W/m 0,7 C -5,2 C 24,1 km/h (4 Bft) 98,20 %
04.02.2016 22:15 1,4 C 95 % 1019,7 hPa 0,2 l/m 16,3 km/h (3 Bft) W-SW 249 0 min 0,000 mm 0,0 UV-I 0 W/m 0,7 C -6,0 C 25,7 km/h (4 Bft) 97,58 %
04.02.2016 22:20 1,6 C 95 % 1019,7 hPa 0,0 l/m 16,4 km/h (3 Bft) W-SW 242 0 min 0,000 mm 0,0 UV-I 0 W/m 0,9 C -5,8 C 24,1 km/h (4 Bft) 100,00 %
04.02.2016 22:25 1,6 C 95 % 1019,8 hPa 0,2 l/m 16,7 km/h (3 Bft) W-SW 249 0 min 0,000 mm 0,0 UV-I 0 W/m 0,9 C -6,0 C 27,4 km/h (4 Bft) 99,11 %
04.02.2016 22:30 1,7 C 95 % 1019,9 hPa 0,0 l/m 10,7 km/h (2 Bft) SW 233 0 min 0,000 mm 0,0 UV-I 0 W/m 1,0 C -2,1 C 20,9 km/h (4 Bft) 99,19 %
04.02.2016 22:35 1,7 C 95 % 1019,8 hPa 0,0 l/m 14,3 km/h (3 Bft) W-SW 243 0 min 0,000 mm 0,0 UV-I 0 W/m 1,0 C -4,5 C 22,5 km/h (4 Bft) 99,06 %
04.02.2016 22:40 1,8 C 95 % 1019,9 hPa 0,2 l/m 15,0 km/h (3 Bft) W-SW 237 0 min 0,000 mm 0,0 UV-I 0 W/m 1,1 C -4,8 C 22,5 km/h (4 Bft) 99,22 %
04.02.2016 22:45 1,9 C 95 % 1020,0 hPa 0,0 l/m 12,7 km/h (3 Bft) W-SW 244 0 min 0,000 mm 0,0 UV-I 0 W/m 1,2 C -3,3 C 22,5 km/h (4 Bft) 97,25 %
04.02.2016 22:50 1,9 C 95 % 1020,1 hPa 0,2 l/m 17,6 km/h (3 Bft) W-SW 257 0 min 0,000 mm 0,0 UV-I 0 W/m 1,2 C -6,1 C 27,4 km/h (4 Bft) 100,00 %
04.02.2016 22:55 1,9 C 95 % 1020,3 hPa 0,0 l/m 16,1 km/h (3 Bft) W-SW 254 0 min 0,000 mm 0,0 UV-I 0 W/m 1,2 C -5,3 C 22,5 km/h (4 Bft) 100,00 %
04.02.2016 23:00 2,0 C 95 % 1020,3 hPa 0,2 l/m 14,9 km/h (3 Bft) W-SW 246 0 min 0,000 mm 0,0 UV-I 0 W/m 1,3 C -4,5 C 22,5 km/h (4 Bft) 97,62 %
04.02.2016 23:05 2,0 C 95 % 1020,3 hPa 0,0 l/m 15,9 km/h (3 Bft) W 273 0 min 0,000 mm 0,0 UV-I 0 W/m 1,3 C -5,1 C 25,7 km/h (4 Bft) 96,69 %
04.02.2016 23:10 2,1 C 95 % 1020,4 hPa 0,0 l/m 12,5 km/h (3 Bft) W-SW 252 0 min 0,000 mm 0,0 UV-I 0 W/m 1,4 C -2,9 C 22,5 km/h (4 Bft) 100,00 %
04.02.2016 23:15 2,1 C 95 % 1020,5 hPa 0,0 l/m 11,9 km/h (2 Bft) W 265 0 min 0,000 mm 0,0 UV-I 0 W/m 1,4 C -2,5 C 19,3 km/h (3 Bft) 99,15 %
04.02.2016 23:20 2,1 C 95 % 1020,5 hPa 0,0 l/m 10,9 km/h (2 Bft) W 268 0 min 0,000 mm 0,0 UV-I 0 W/m 1,4 C -1,8 C 19,3 km/h (3 Bft) 100,00 %
04.02.2016 23:25 2,1 C 95 % 1020,5 hPa 0,0 l/m 11,1 km/h (2 Bft) W-SW 258 0 min 0,000 mm 0,0 UV-I 0 W/m 1,4 C -2,0 C 20,9 km/h (4 Bft) 100,00 %
04.02.2016 23:30 2,3 C 95 % 1020,7 hPa 0,0 l/m 12,6 km/h (3 Bft) W-SW 244 0 min 0,000 mm 0,0 UV-I 0 W/m 1,6 C -2,7 C 22,5 km/h (4 Bft) 98,25 %
04.02.2016 23:35 2,4 C 95 % 1020,8 hPa 0,0 l/m 13,1 km/h (3 Bft) W 271 0 min 0,000 mm 0,0 UV-I 0 W/m 1,7 C -3,0 C 22,5 km/h (4 Bft) 100,00 %
04.02.2016 23:40 2,5 C 95 % 1020,9 hPa 0,0 l/m 12,1 km/h (2 Bft) W-SW 251 0 min 0,000 mm 0,0 UV-I 0 W/m 1,8 C -2,2 C 20,9 km/h (4 Bft) 97,52 %
04.02.2016 23:45 2,5 C 95 % 1020,9 hPa 0,0 l/m 11,5 km/h (2 Bft) W-NW 286 0 min 0,000 mm 0,0 UV-I 0 W/m 1,8 C -1,8 C 20,9 km/h (4 Bft) 97,50 %
04.02.2016 23:50 2,5 C 95 % 1021,0 hPa 0,0 l/m 12,3 km/h (3 Bft) W 263 0 min 0,000 mm 0,0 UV-I 0 W/m 1,8 C -2,3 C 25,7 km/h (4 Bft) 98,21 %
04.02.2016 23:55 2,5 C 94 % 1021,1 hPa 0,0 l/m 14,8 km/h (3 Bft) W-NW 290 0 min 0,000 mm 0,0 UV-I 0 W/m 1,6 C -3,8 C 25,7 km/h (4 Bft) 95,83 %
_ Min-Zeit 07:50 12:05 21:35 - 20:55 - - - - - - 06:20 12:40 20:55 01:10
Minimum _ 0,9 C 74 % 1019,5 hPa - 0,4 km/h (0 Bft) - - - - - - -1,3 C -8,0 C 3,2 km/h (1 Bft) 94,34 %
_ Max-Zeit 12:15 20:50 10:25 19:20 12:20 - - 12:05 13:00 12:10 12:15 23:40 20:00 12:10 00:20
Maximum _ 4,4 C 95 % 1025,9 hPa 0,2 l/m 31,8 km/h
W-SW (5 Bft)
- - 5 min 0,101 mm 1,2 UV-I 387 W/m 1,8 C 1,4 C 51,5 km/h
W-SW (7 Bft)
100,00 %
Durchschnitt _ 2,3 C 85 % 1023,3 hPa #2,4 l/m 15,9 km/h (3 Bft) W-SW - #25 min. #0,813 mm 0,6 UV-I 97 W/m 0,1 C -4,3 C 26,9 km/h (4 Bft) 98,61 %